This is the latest recevied weather packets stored in our database for station/object DG9BJA-13. If no packets are shown the sender has not sent any weather packets the latest 10 day(s).
| Time | Temp. | Humidity | Pressure | Rain* | Wind** | Luminosity | Snow |
|---|---|---|---|---|---|---|---|
| 1777649176 | 23.33° C | 36% | 1023.9 hPa | 0 mm | - | 466 W/m² | - |
| 1777647976 | 23.33° C | 35% | 1024 hPa | 0 mm | - | 508 W/m² | - |
| 1777647376 | 23.33° C | 35% | 1024.1 hPa | 0 mm | - | 529 W/m² | - |
| 1777646776 | 23.33° C | 36% | 1024.1 hPa | 0 mm | - | 545 W/m² | - |
| 1777646176 | 23.33° C | 37% | 1024.3 hPa | 0 mm | - | 577 W/m² | - |
| 1777645576 | 23.33° C | 36% | 1024.6 hPa | 0 mm | - | 603 W/m² | - |
| 1777644976 | 23.33° C | 36% | 1024.6 hPa | 0 mm | - | 624 W/m² | - |
| 1777644376 | 23.33° C | 36% | 1024.6 hPa | 0 mm | - | 643 W/m² | - |
| 1777643776 | 23.33° C | 36% | 1024.8 hPa | 0 mm | - | 664 W/m² | - |
| 1777643176 | 23.33° C | 37% | 1024.8 hPa | 0 mm | - | 677 W/m² | - |
| 1777642576 | 23.33° C | 37% | 1025.1 hPa | 0 mm | - | 696 W/m² | - |
| 1777641975 | 23.33° C | 37% | 1025.3 hPa | 0 mm | - | 705 W/m² | - |
| 1777641376 | 22.78° C | 38% | 1025.3 hPa | 0 mm | - | 719 W/m² | - |
| 1777640776 | 22.78° C | 38% | 1025.6 hPa | 0 mm | - | 733 W/m² | - |
| 1777640176 | 22.78° C | 39% | 1025.9 hPa | 0 mm | - | 747 W/m² | - |
| 1777639576 | 22.22° C | 39% | 1025.9 hPa | 0 mm | - | 759 W/m² | - |
| 1777638976 | 21.67° C | 39% | 1026 hPa | 0 mm | - | 766 W/m² | - |
| 1777638375 | 22.22° C | 40% | 1026.2 hPa | 0 mm | - | 777 W/m² | - |
| 1777637775 | 22.22° C | 39% | 1026.2 hPa | 0 mm | - | 789 W/m² | - |
| 1777637175 | 22.22° C | 39% | 1026.2 hPa | 0 mm | - | 796 W/m² | - |
| 1777636575 | 21.67° C | 40% | 1026.6 hPa | 0 mm | - | 800 W/m² | - |
| 1777635975 | 21.67° C | 39% | 1026.6 hPa | 0 mm | - | 807 W/m² | - |
| 1777635377 | 21.11° C | 40% | 1026.7 hPa | 0 mm | - | 795 W/m² | - |
| 1777634777 | 21.11° C | 41% | 1026.9 hPa | 0 mm | - | 805 W/m² | - |
| 1777634177 | 21.11° C | 41% | 1026.9 hPa | 0 mm | - | 802 W/m² | - |
* Rain latest hour (hover to see other rain measurements)
** Current wind speed in m/s (hover to see current wind gust speed)